Regional Weather Roundup
Issued by NWS Charleston, SC

Current Version | Previous Version | Text Only | Print | Product List | Glossary Off
Versions: 1 2 3 4 5 6 7 8 9 10 11 12 13 14 15 16 17 18 19 20 21 22 23 24 25 26 27 28 29 30 31 32 33 34 35 36 37 38 39 40 41 42 43 44 45 46 47 48 49 50
000 ASUS42 KCHS 280927 RWRCHS REGIONAL WEATHER ROUNDUP NATIONAL WEATHER SERVICE CHARLESTON SC 500 AM EDT WED JUN 28 2017 NOTE: "FAIR" INDICATES FEW OR NO CLOUDS BELOW 12,000 FEET WITH NO SIGNIFICANT WEATHER AND/OR OBSTRUCTIONS TO VISIBILITY. NOT ALL STATIONS ARE QUALITY CONTROLLED. USE DATA WITH CAUTION... ESPECIALLY DEWPOINT OBSERVATIONS. SCZ027-030-031-034>040-042>050-281000- ...SOUTHEAST SOUTH CAROLINA... CITY SKY/WX TMP DP RH WIND PRES REMARKS N CHARLESTON PTCLDY 70 66 87 N5 30.08R WATERFRONT PRK N/A 76 71 84 N8 30.05R JOHNS ISLAND FAIR 73 68 83 N5 30.08R PINOPOLIS N/A 75 66 73 NE14 30.01R MONCKS CORNER FAIR 68 63 83 NE8 30.09S SUMMERVILLE FAIR 68 66 94 CALM 30.10R BEAUFORT MCAS CLOUDY 74 71 91 N6 30.07S BEAUFORT ARPT FAIR 72 68 88 N5 30.08R HILTON HEAD IS CLOUDY 75 72 88 N8 30.08R WALTERBORO CLOUDY 66 64 94 CALM 30.10R ALLENDALE FAIR 70 70 100 N5 30.08S ...SOUTHERN MIDLANDS AND PEE DEE... CITY SKY/WX TMP DP RH WIND PRES REMARKS GEORGETOWN FAIR 66 64 94 N5 30.10S KINGSTREE FAIR 64 61 88 CALM 30.11R ORANGEBURG CLOUDY 68 63 84 E5 30.11R BARNWELL FAIR 68 68 100 CALM 30.10S AIKEN FAIR 64 59 82 E3 30.15R MANNING FAIR 63 63 100 NE6 30.11R COLUMBIA PTCLDY 70 59 68 CALM 30.10S SUMTER CLEAR 66 58 74 CALM 30.10R FLORENCE PTCLDY 64 58 80 NE5 30.12R MYRTLE BEACH CLEAR 70 61 73 NE8 30.11R N MYRTLE BEACH CLEAR 68 62 81 NE7 30.09S $$ GAZ063-065-086>088-099>101-113>116-118-119-134>141-150-281000- ...SOUTHEAST GEORGIA... CITY SKY/WX TMP DP RH WIND PRES REMARKS SAVANNAH ARPT CLOUDY 71 68 90 N3 30.07S HUNTER AAF PTCLDY 72 69 92 CALM 30.04S FORT STEWART MOCLDY 70 67 92 NW3 30.05R STATESBORO MOCLDY 70 32 24 CALM 30.08S SYLVANIA CLOUDY 69 69 100 CALM 30.10R FOG CLAXTON FAIR 67 67 99 CALM 30.08R ...CSRA...CENTRAL AND FAR SOUTHEAST GEORGIA... CITY SKY/WX TMP DP RH WIND PRES REMARKS THOMSON CLEAR 63 62 95 CALM 30.15R AUGUSTA-BUSH CLEAR 67 65 93 CALM 30.08R FOG AUGUSTA-DANIEL CLEAR 72 65 78 E6 30.10R SWAINSBORO FAIR 68 68 100 CALM 30.08S VIDALIA MOCLDY 72 70 94 CALM 30.08R EASTMAN FOG 68 68 100 CALM 30.10R VSB 3/4 HAZLEHURST FAIR 71 71 100 CALM 30.06R ALMA MOCLDY 68 66 93 CALM 30.06R WAYCROSS PTCLDY 71 71 100 CALM 30.07R JESUP FAIR 68 64 88 CALM 30.07S BAXLEY FAIR 68 68 100 CALM 30.07R BRUNSWICK PTCLDY 70 70 100 CALM 30.06S SAINT SIMONS MOCLDY 73 71 93 N5 30.05R $$ SCZ027-028-034-036>038-045-046-048>050-GAZ119-141-281000- ...LAKE AND SUPPLEMENTAL COASTAL OBSERVATIONS... STATION/POSITION TIME TEMP WIND PRES WAVE SWELL AIR SEA DIR/SP/G HT/PER HT/PER/DIR (UTC) (F) (DEG/KT/KT) (MB) (FT/S) (FT/S/D) WINYAH BAY 0830 72 20/ 4 1019.0R LAKE MURRAY 0920 71 60/ 1/ 3 1019.0R ACE BASIN NERRS 0830 72 CALM 1018.0S FORT PULASKI 0900 75 83 10/ 5/ 6 1018.4 SAPELO ISLAND 0900 75 360/ 6 1018.0 $$ ANZ835-935-AMZ111-154-330-350-352-354-370-450-454-472-281000- ...C-MAN AND BUOY OBSERVATIONS... STATION/POSITION TIME TEMP WIND PRES WAVE SWELL AIR SEA DIR/SP/G HT/PER HT/PER/DIR (UTC) (F) (DEG/KT/KT) (MB) (FT/S) (FT/S/D) BUOY 41004 0910 79 81 20/ 10/ 12 1017.8 BUOY 41008 0850 79 82 40/ 8/ 10 1017.2F 1/ 8 2/110/ 8 FOLLY BEACH CMAN 0900 75 350/ 7/ 9 1019.0R CAPERS NEARSHORE 0908 82 83 20/ 12/ 17 1018.3R FRIPP NEARSHORE 0908 79 83 20/ 10/ 14 1017.9R STATION/POSITION TIME TEMP WIND PRES WAVE SWELL AIR SEA DIR/SP/G HT/PER HT/PER/DIR (UTC) (F) (DEG/KT/KT) (MB) (FT/S) (FT/S/D) 5E ST. MARYS GA 0900 81 N/A 1/ 7 FRYING PAN BUOY 0910 79 81 30/ 17/ 21 1018.3 BUOY 41025 0850 76 80 360/ 12/ 14 1018.4R 2/ 3 2/110/ 6 CAPE LOOKOUT NC 0900 75 10/ 9/ 11 1018.9R BUOY 41002 0850 79 80 300/ 6/ 8 1017.3R 3/ 6 3/160/ 6 BUOY 41010 0910 83 83 180/ 8/ 10 1015.5 ST AUGUSTINE FL 0900 78 78 30/ 9/ 10 1016.7S $$

USA.gov is the U.S. government's official web portal to all federal, state and local government web resources and services.